Time,TemperatureF,DewpointF,PressureIn,WindDirection,WindDirectionDegrees,WindSpeedMPH,WindSpeedGustMPH,Humidity,HourlyPrecipIn,Conditions,Clouds,dailyrainin,SolarRadiationWatts/m^2,SoftwareType,DateUTC
2013-09-15 00:09:00,47.8,45.0,30.16,WNW,288,0.0,2.0,91,0.00,,,0.00,0,weatherlink.com 1.10,2013-09-15 04:09:00,
2013-09-15 00:24:00,47.4,45.0,30.16,WNW,288,0.0,0.0,92,0.00,,,0.00,0,weatherlink.com 1.10,2013-09-15 04:24:00,
2013-09-15 00:40:00,47.4,46.0,30.16,WNW,288,2.0,4.0,93,0.00,,,0.00,0,weatherlink.com 1.10,2013-09-15 04:40:00,
2013-09-15 00:54:00,47.3,45.0,30.16,WNW,288,2.0,3.0,93,0.00,,,0.00,0,weatherlink.com 1.10,2013-09-15 04:54:00,
2013-09-15 01:09:00,47.7,46.0,30.16,NW,312,2.0,4.0,93,0.00,,,0.00,0,weatherlink.com 1.10,2013-09-15 05:09:00,
2013-09-15 01:25:00,47.7,46.0,30.17,WNW,286,2.0,4.0,92,0.00,,,0.00,0,weatherlink.com 1.10,2013-09-15 05:25:00,
2013-09-15 01:39:00,47.6,45.0,30.17,WNW,298,3.0,5.0,92,0.00,,,0.00,0,weatherlink.com 1.10,2013-09-15 05:39:00,
2013-09-15 01:54:00,47.2,45.0,30.17,NNW,330,2.0,3.0,92,0.00,,,0.00,0,weatherlink.com 1.10,2013-09-15 05:54:00,
2013-09-15 02:09:00,46.9,45.0,30.17,NW,304,1.0,3.0,92,0.00,,,0.00,0,weatherlink.com 1.10,2013-09-15 06:09:00,
2013-09-15 02:24:00,46.3,44.0,30.17,NW,304,1.0,3.0,92,0.00,,,0.00,0,weatherlink.com 1.10,2013-09-15 06:24:00,
2013-09-15 02:41:00,46.0,44.0,30.17,NW,304,2.0,3.0,93,0.00,,,0.00,0,weatherlink.com 1.10,2013-09-15 06:41:00,
2013-09-15 02:54:00,45.6,44.0,30.17,NW,304,2.0,3.0,93,0.00,,,0.00,0,weatherlink.com 1.10,2013-09-15 06:54:00,
2013-09-15 03:09:00,44.8,43.0,30.17,NW,304,2.0,3.0,93,0.00,,,0.00,0,weatherlink.com 1.10,2013-09-15 07:09:00,
2013-09-15 03:24:00,44.8,43.0,30.18,NW,304,1.0,2.0,94,0.00,,,0.00,0,weatherlink.com 1.10,2013-09-15 07:24:00,
2013-09-15 03:39:00,44.7,43.0,30.18,WNW,303,1.0,2.0,94,0.00,,,0.00,0,weatherlink.com 1.10,2013-09-15 07:39:00,
2013-09-15 03:54:00,44.7,43.0,30.18,WNW,303,1.0,3.0,94,0.00,,,0.00,0,weatherlink.com 1.10,2013-09-15 07:54:00,
2013-09-15 04:09:00,44.5,43.0,30.18,WNW,303,0.0,3.0,95,0.00,,,0.00,0,weatherlink.com 1.10,2013-09-15 08:09:00,
2013-09-15 04:24:00,44.1,43.0,30.19,WNW,303,0.0,2.0,94,0.00,,,0.00,0,weatherlink.com 1.10,2013-09-15 08:24:00,
2013-09-15 04:39:00,43.7,42.0,30.19,WNW,303,1.0,2.0,95,0.00,,,0.00,0,weatherlink.com 1.10,2013-09-15 08:39:00,
2013-09-15 04:55:00,43.4,42.0,30.19,WNW,303,2.0,3.0,95,0.00,,,0.00,0,weatherlink.com 1.10,2013-09-15 08:55:00,
2013-09-15 05:10:00,44.3,43.0,30.19,WNW,303,1.0,3.0,95,0.00,,,0.00,0,weatherlink.com 1.10,2013-09-15 09:10:00,
2013-09-15 05:25:00,44.3,43.0,30.19,WNW,303,1.0,3.0,95,0.00,,,0.00,0,weatherlink.com 1.10,2013-09-15 09:25:00,
2013-09-15 05:40:00,44.5,43.0,30.19,WNW,303,1.0,2.0,95,0.00,,,0.00,0,weatherlink.com 1.10,2013-09-15 09:40:00,
2013-09-15 05:55:00,44.0,43.0,30.20,WNW,303,1.0,3.0,95,0.00,,,0.00,0,weatherlink.com 1.10,2013-09-15 09:55:00,
2013-09-15 06:10:00,43.8,43.0,30.20,WNW,303,0.0,2.0,95,0.00,,,0.00,0,weatherlink.com 1.10,2013-09-15 10:10:00,
2013-09-15 06:25:00,43.5,42.0,30.21,WNW,303,2.0,3.0,95,0.00,,,0.00,0,weatherlink.com 1.10,2013-09-15 10:25:00,
2013-09-15 06:40:00,43.9,43.0,30.21,WNW,303,0.0,2.0,95,0.00,,,0.00,7,weatherlink.com 1.10,2013-09-15 10:40:00,
2013-09-15 06:55:00,43.9,43.0,30.21,WNW,303,0.0,1.0,95,0.00,,,0.00,14,weatherlink.com 1.10,2013-09-15 10:55:00,
2013-09-15 07:10:00,44.5,44.0,30.22,WNW,303,0.0,2.0,96,0.00,,,0.00,18,weatherlink.com 1.10,2013-09-15 11:10:00,
2013-09-15 07:26:00,45.6,45.0,30.22,WNW,303,1.0,2.0,96,0.00,,,0.00,21,weatherlink.com 1.10,2013-09-15 11:26:00,
2013-09-15 07:39:00,46.5,45.0,30.23,WNW,303,2.0,3.0,95,0.00,,,0.00,84,weatherlink.com 1.10,2013-09-15 11:39:00,
2013-09-15 07:55:00,47.6,46.0,30.23,WNW,303,0.0,3.0,95,0.00,,,0.00,44,weatherlink.com 1.10,2013-09-15 11:55:00,
2013-09-15 08:10:00,49.5,48.0,30.23,WNW,303,0.0,3.0,93,0.00,,,0.00,100,weatherlink.com 1.10,2013-09-15 12:10:00,
2013-09-15 08:25:00,51.3,48.0,30.24,WNW,282,2.0,5.0,89,0.00,,,0.00,239,weatherlink.com 1.10,2013-09-15 12:25:00,
2013-09-15 08:40:00,53.2,49.0,30.24,WSW,254,3.0,5.0,86,0.00,,,0.00,325,weatherlink.com 1.10,2013-09-15 12:40:00,
2013-09-15 08:56:00,55.6,50.0,30.24,West,281,4.0,5.0,81,0.00,,,0.00,381,weatherlink.com 1.10,2013-09-15 12:56:00,
2013-09-15 09:10:00,56.7,50.0,30.24,West,279,2.0,6.0,77,0.00,,,0.00,452,weatherlink.com 1.10,2013-09-15 13:10:00,
2013-09-15 09:26:00,58.1,49.0,30.25,WSW,254,4.0,8.0,72,0.00,,,0.00,499,weatherlink.com 1.10,2013-09-15 13:26:00,
2013-09-15 09:42:00,59.3,49.0,30.25,West,268,5.0,7.0,69,0.00,,,0.00,547,weatherlink.com 1.10,2013-09-15 13:42:00,
2013-09-15 09:57:00,60.3,49.0,30.25,North,5,2.0,7.0,67,0.00,,,0.00,584,weatherlink.com 1.10,2013-09-15 13:57:00,
2013-09-15 10:11:00,61.2,48.0,30.25,NW,313,6.0,8.0,63,0.00,,,0.00,621,weatherlink.com 1.10,2013-09-15 14:11:00,
2013-09-15 10:26:00,62.0,50.0,30.25,West,279,1.0,9.0,66,0.00,,,0.00,654,weatherlink.com 1.10,2013-09-15 14:26:00,
2013-09-15 10:41:00,62.7,50.0,30.25,NNW,334,3.0,10.0,64,0.00,,,0.00,684,weatherlink.com 1.10,2013-09-15 14:41:00,
2013-09-15 10:56:00,64.0,50.0,30.24,West,265,5.0,9.0,61,0.00,,,0.00,751,weatherlink.com 1.10,2013-09-15 14:56:00,
2013-09-15 11:11:00,65.6,51.0,30.24,WNW,286,6.0,8.0,60,0.00,,,0.00,800,weatherlink.com 1.10,2013-09-15 15:11:00,
2013-09-15 11:26:00,65.2,50.0,30.23,NW,310,3.0,9.0,59,0.00,,,0.00,817,weatherlink.com 1.10,2013-09-15 15:26:00,
2013-09-15 11:41:00,66.6,51.0,30.23,WNW,303,2.0,6.0,58,0.00,,,0.00,538,weatherlink.com 1.10,2013-09-15 15:41:00,
2013-09-15 11:56:00,66.2,51.0,30.23,WNW,294,7.0,10.0,58,0.00,,,0.00,854,weatherlink.com 1.10,2013-09-15 15:56:00,
2013-09-15 12:11:00,67.0,52.0,30.23,WNW,298,4.0,11.0,60,0.00,,,0.00,689,weatherlink.com 1.10,2013-09-15 16:11:00,
2013-09-15 12:26:00,67.9,52.0,30.23,WSW,250,7.0,12.0,57,0.00,,,0.00,779,weatherlink.com 1.10,2013-09-15 16:26:00,
2013-09-15 12:41:00,67.7,51.0,30.22,West,274,3.0,13.0,56,0.00,,,0.00,840,weatherlink.com 1.10,2013-09-15 16:41:00,
2013-09-15 12:56:00,69.1,52.0,30.21,WNW,287,7.0,11.0,55,0.00,,,0.00,819,weatherlink.com 1.10,2013-09-15 16:56:00,
2013-09-15 13:12:00,69.5,52.0,30.21,NW,319,6.0,12.0,54,0.00,,,0.00,856,weatherlink.com 1.10,2013-09-15 17:12:00,
2013-09-15 13:26:00,69.2,52.0,30.20,West,277,7.0,13.0,54,0.00,,,0.00,851,weatherlink.com 1.10,2013-09-15 17:26:00,
2013-09-15 13:41:00,70.9,51.0,30.20,NNW,331,8.0,10.0,49,0.00,,,0.00,858,weatherlink.com 1.10,2013-09-15 17:41:00,
2013-09-15 13:56:00,70.8,49.0,30.19,West,280,8.0,10.0,46,0.00,,,0.00,810,weatherlink.com 1.10,2013-09-15 17:56:00,
2013-09-15 14:11:00,71.1,51.0,30.19,North,5,6.0,10.0,50,0.00,,,0.00,647,weatherlink.com 1.10,2013-09-15 18:11:00,
2013-09-15 14:26:00,72.2,50.0,30.18,NW,305,3.0,11.0,46,0.00,,,0.00,810,weatherlink.com 1.10,2013-09-15 18:26:00,
2013-09-15 14:41:00,71.7,51.0,30.18,NNW,331,6.0,9.0,48,0.00,,,0.00,552,weatherlink.com 1.10,2013-09-15 18:41:00,
2013-09-15 14:57:00,72.0,50.0,30.17,West,279,8.0,10.0,46,0.00,,,0.00,751,weatherlink.com 1.10,2013-09-15 18:57:00,
2013-09-15 15:11:00,71.9,50.0,30.16,West,266,6.0,8.0,47,0.00,,,0.00,476,weatherlink.com 1.10,2013-09-15 19:11:00,
2013-09-15 15:26:00,72.3,51.0,30.16,NW,304,4.0,7.0,48,0.00,,,0.00,645,weatherlink.com 1.10,2013-09-15 19:26:00,
2013-09-15 15:41:00,72.0,51.0,30.16,WNW,286,3.0,10.0,47,0.00,,,0.00,223,weatherlink.com 1.10,2013-09-15 19:41:00,
2013-09-15 15:56:00,72.8,51.0,30.15,WNW,291,4.0,9.0,47,0.00,,,0.00,631,weatherlink.com 1.10,2013-09-15 19:56:00,
2013-09-15 16:11:00,73.2,51.0,30.14,WNW,302,5.0,10.0,45,0.00,,,0.00,536,weatherlink.com 1.10,2013-09-15 20:11:00,
2013-09-15 16:26:00,72.2,50.0,30.14,West,273,2.0,9.0,45,0.00,,,0.00,457,weatherlink.com 1.10,2013-09-15 20:26:00,
2013-09-15 16:41:00,72.7,51.0,30.13,SW,219,3.0,6.0,47,0.00,,,0.00,445,weatherlink.com 1.10,2013-09-15 20:41:00,
2013-09-15 16:56:00,72.2,50.0,30.13,SW,224,1.0,4.0,46,0.00,,,0.00,345,weatherlink.com 1.10,2013-09-15 20:56:00,
2013-09-15 17:11:00,71.0,56.0,30.13,SE,136,3.0,7.0,59,0.00,,,0.00,345,weatherlink.com 1.10,2013-09-15 21:11:00,
2013-09-15 17:26:00,71.1,51.0,30.13,South,186,1.0,6.0,50,0.00,,,0.00,127,weatherlink.com 1.10,2013-09-15 21:26:00,
2013-09-15 17:42:00,70.4,51.0,30.13,WNW,286,3.0,4.0,51,0.00,,,0.00,58,weatherlink.com 1.10,2013-09-15 21:42:00,
2013-09-15 17:57:00,69.8,52.0,30.12,WSW,246,0.0,5.0,53,0.00,,,0.00,67,weatherlink.com 1.10,2013-09-15 21:57:00,
2013-09-15 18:12:00,69.5,52.0,30.12,West,275,2.0,4.0,54,0.00,,,0.00,72,weatherlink.com 1.10,2013-09-15 22:12:00,
2013-09-15 18:27:00,68.7,53.0,30.12,West,275,0.0,4.0,58,0.00,,,0.00,40,weatherlink.com 1.10,2013-09-15 22:27:00,
2013-09-15 18:42:00,65.9,53.0,30.12,West,275,0.0,1.0,64,0.00,,,0.00,21,weatherlink.com 1.10,2013-09-15 22:42:00,
2013-09-15 18:57:00,64.0,54.0,30.11,West,275,0.0,0.0,69,0.00,,,0.00,9,weatherlink.com 1.10,2013-09-15 22:57:00,
2013-09-15 19:13:00,62.1,53.0,30.12,West,275,0.0,0.0,73,0.00,,,0.00,0,weatherlink.com 1.10,2013-09-15 23:13:00,
2013-09-15 19:28:00,61.7,54.0,30.12,SSW,210,0.0,4.0,75,0.00,,,0.00,0,weatherlink.com 1.10,2013-09-15 23:28:00,
2013-09-15 19:42:00,60.7,54.0,30.12,SSW,213,2.0,4.0,78,0.00,,,0.00,0,weatherlink.com 1.10,2013-09-15 23:42:00,
2013-09-15 19:57:00,60.9,54.0,30.13,WSW,256,1.0,3.0,79,0.00,,,0.00,0,weatherlink.com 1.10,2013-09-15 23:57:00,
2013-09-15 20:12:00,61.8,56.0,30.13,WSW,242,2.0,5.0,80,0.00,,,0.00,0,weatherlink.com 1.10,2013-09-16 00:12:00,
2013-09-15 20:27:00,63.6,56.0,30.13,SW,214,3.0,6.0,76,0.00,,,0.00,0,weatherlink.com 1.10,2013-09-16 00:27:00,
2013-09-15 20:42:00,63.5,55.0,30.14,SW,231,4.0,11.0,74,0.00,,,0.00,0,weatherlink.com 1.10,2013-09-16 00:42:00,
2013-09-15 20:57:00,63.1,55.0,30.14,WSW,240,4.0,8.0,74,0.00,,,0.00,0,weatherlink.com 1.10,2013-09-16 00:57:00,
2013-09-15 21:12:00,62.7,55.0,30.14,SW,215,2.0,8.0,75,0.00,,,0.00,0,weatherlink.com 1.10,2013-09-16 01:12:00,
2013-09-15 21:27:00,62.2,54.0,30.14,SW,227,4.0,7.0,75,0.00,,,0.00,0,weatherlink.com 1.10,2013-09-16 01:27:00,
2013-09-15 21:42:00,61.8,54.0,30.14,SW,219,0.0,6.0,75,0.00,,,0.00,0,weatherlink.com 1.10,2013-09-16 01:42:00,
2013-09-15 21:57:00,61.2,54.0,30.14,SW,233,3.0,5.0,76,0.00,,,0.00,0,weatherlink.com 1.10,2013-09-16 01:57:00,
2013-09-15 22:12:00,61.4,54.0,30.14,SSW,201,1.0,6.0,76,0.00,,,0.00,0,weatherlink.com 1.10,2013-09-16 02:12:00,
2013-09-15 22:27:00,61.2,54.0,30.14,SW,232,1.0,5.0,77,0.00,,,0.00,0,weatherlink.com 1.10,2013-09-16 02:27:00,
2013-09-15 22:42:00,60.8,54.0,30.14,West,260,1.0,5.0,78,0.00,,,0.00,0,weatherlink.com 1.10,2013-09-16 02:42:00,
2013-09-15 22:57:00,60.2,54.0,30.14,SW,232,2.0,4.0,80,0.00,,,0.00,0,weatherlink.com 1.10,2013-09-16 02:57:00,
2013-09-15 23:12:00,59.5,54.0,30.13,SW,232,0.0,3.0,82,0.00,,,0.00,0,weatherlink.com 1.10,2013-09-16 03:12:00,
2013-09-15 23:27:00,58.4,54.0,30.13,SW,220,1.0,3.0,85,0.00,,,0.00,0,weatherlink.com 1.10,2013-09-16 03:27:00,
2013-09-15 23:42:00,58.8,54.0,30.13,SW,220,0.0,3.0,84,0.00,,,0.00,0,weatherlink.com 1.10,2013-09-16 03:42:00,
2013-09-15 23:57:00,57.7,54.0,30.13,SW,220,0.0,1.0,86,0.00,,,0.00,0,weatherlink.com 1.10,2013-09-16 03:57:00,